Welcome to the New NWS' Forecast!
Most changes are behind the scenes, but click here for differences you might notice.

Terminal Aerodrome Forecast (TAF)

Issued by National Weather Service (NWS)

                            
346 
FTUS42 KMFL 140255 AAA
TAFMIA
TAF AMD
KMIA 140255Z 1403/1506 VRB04KT P6SM SCT030 SCT200
     FM141500 12008KT P6SM VCSH SCT025 BKN050 BKN250
     FM141800 14011KT P6SM SCT030 SCT050 BKN250
     FM150200 10006KT P6SM FEW050 SCT250=